[Date Prev][Date Next][Thread Prev][Thread Next] - [Date Index][Thread Index][Author Index]
2 Line ISS Keps 9-11
- Subject: [sarex] 2 Line ISS Keps 9-11
- From: "Dr Dave Larsen PhD" <doc@xxxxxxxxxxx>
- Date: Sun, 11 Sep 2005 08:26:14 -0700
ISS
1 25544U 98067A 05254.45312500 .00015910 00000-0 11967-3 0 3375
2 25544 051.6426 179.2160 0002253 049.5982 111.3933 15.72740787389257
----
Via the sarex mailing list at AMSAT.ORG courtesy of AMSAT-NA.
To unsubscribe, send "unsubscribe sarex" to Majordomo@amsat.org
AMSAT Home